DIRECTV 5 (TEMPO 1) 1 27426U 02023A 21065.67940848 -.00000072 00000-0 00000+0 0 9997 2 27426 0.0175 156.5724 0003197 199.4314 303.0527 1.00271327 68969 SL-12 R/B(2) 1 27429U 02023D 21065.80154932 -.00000084 00000-0 00000+0 0 9999 2 27429 18.9745 54.5862 5371557 26.7578 111.2195 1.90582452131201